DLH40X EGLL-EDDF

Flight info

Callsign DLH40X
Flight time N/A
Altitude 35000
Route BPK Q295 MATCH DCT REDFA DCT TACHA DCT NOLRU DCT DIXAT DIXAT1A
Aircraft B744/H-SDE3FGHIM1M2RWXY/LB1

Departure

Time 2026-05-05 13:13
Airport London Heathrow Airport (EGLL)

Arrival

Time N/A
Airport Frankfurt Main Airport (EDDF)
Time Latitude Longitude Altitude Speed Heading
2026-05-05 12:42 51.46848 -0.48227 84 ft 0 kts 90°
2026-05-05 13:04 51.46848 -0.48247 84 ft 2 kts 90°
2026-05-05 13:04 51.46847 -0.48272 84 ft 2 kts 90°
2026-05-05 13:05 51.46849 -0.48297 84 ft 2 kts 106°
2026-05-05 13:05 51.46854 -0.48319 83 ft 2 kts 125°
2026-05-05 13:05 51.46864 -0.48338 83 ft 2 kts 142°
2026-05-05 13:05 51.46878 -0.48351 83 ft 2 kts 159°
2026-05-05 13:06 51.46892 -0.48357 83 ft 1 kts 177°
2026-05-05 13:06 51.46899 -0.48359 83 ft 1 kts 182°
2026-05-05 13:06 51.46902 -0.48359 83 ft 0 kts 180°
2026-05-05 13:09 51.46896 -0.48359 83 ft 2 kts 180°
2026-05-05 13:09 51.46867 -0.48357 83 ft 5 kts 179°
2026-05-05 13:10 51.46807 -0.48356 83 ft 11 kts 179°
2026-05-05 13:10 51.46739 -0.48422 81 ft 12 kts 262°
2026-05-05 13:10 51.46739 -0.48567 81 ft 13 kts 269°
2026-05-05 13:10 51.46730 -0.48705 81 ft 7 kts 227°
2026-05-05 13:11 51.46679 -0.48741 81 ft 14 kts 189°
2026-05-05 13:11 51.46534 -0.48771 81 ft 23 kts 168°
2026-05-05 13:11 51.46476 -0.48622 81 ft 11 kts 88°
2026-05-05 13:11 51.46477 -0.48608 81 ft 0 kts 89°
2026-05-05 13:12 51.46482 -0.48269 81 ft 77 kts 90°
2026-05-05 13:12 51.46485 -0.46897 82 ft 164 kts 90°
2026-05-05 13:12 51.46492 -0.44695 290 ft 224 kts 89°
2026-05-05 13:13 51.46820 -0.42001 625 ft 260 kts 62°
2026-05-05 13:13 51.48074 -0.39724 1209 ft 292 kts 44°
2026-05-05 13:13 51.49455 -0.37330 2805 ft 294 kts 47°
2026-05-05 13:13 51.50784 -0.34844 3920 ft 302 kts 47°
2026-05-05 13:14 51.51925 -0.31967 4479 ft 310 kts 61°
2026-05-05 13:14 51.52674 -0.28759 5325 ft 296 kts 71°
2026-05-05 13:14 51.53316 -0.25438 5802 ft 317 kts 70°
2026-05-05 13:14 51.53987 -0.22081 6791 ft 323 kts 65°
2026-05-05 13:15 51.55188 -0.19086 7774 ft 322 kts 41°
2026-05-05 13:15 51.57040 -0.17121 8738 ft 320 kts 17°
2026-05-05 13:15 51.59208 -0.16420 9701 ft 320 kts
2026-05-05 13:15 51.61417 -0.15989 10619 ft 328 kts
2026-05-05 13:16 51.63705 -0.15458 11476 ft 337 kts
2026-05-05 13:16 51.66048 -0.14967 12291 ft 341 kts
2026-05-05 13:16 51.68377 -0.13966 12736 ft 353 kts 13°
2026-05-05 13:16 51.70676 -0.12804 13310 ft 352 kts 11°
2026-05-05 13:17 51.73049 -0.11667 13718 ft 356 kts 14°
2026-05-05 13:17 51.75280 -0.09711 14408 ft 374 kts 33°
2026-05-05 13:17 51.77177 -0.06832 15256 ft 384 kts 45°
2026-05-05 13:17 51.78745 -0.03307 16056 ft 393 kts 58°
2026-05-05 13:18 51.79890 0.00729 16797 ft 401 kts 71°
2026-05-05 13:18 51.80428 0.05175 17492 ft 407 kts 88°
2026-05-05 13:18 51.80255 0.09769 18173 ft 408 kts 105°
2026-05-05 13:18 51.79384 0.14111 18828 ft 406 kts 121°
2026-05-05 13:19 51.78001 0.18056 19480 ft 407 kts 128°
2026-05-05 13:19 51.76674 0.22204 20103 ft 422 kts 117°
2026-05-05 13:19 51.75921 0.26871 20629 ft 450 kts 102°
2026-05-05 13:19 51.75796 0.32104 20876 ft 483 kts 88°
2026-05-05 13:20 51.76375 0.37684 20842 ft 520 kts 73°
2026-05-05 13:20 51.77755 0.43111 21673 ft 531 kts 59°
2026-05-05 13:20 51.79727 0.48200 22683 ft 537 kts 54°
2026-05-05 13:20 51.81461 0.53540 23573 ft 550 kts 65°
2026-05-05 13:21 51.82786 0.59325 24483 ft 561 kts 70°
2026-05-05 13:21 51.83979 0.65324 25382 ft 571 kts 73°
2026-05-05 13:21 51.85083 0.71462 26242 ft 580 kts 74°
2026-05-05 13:21 51.86131 0.77639 27058 ft 588 kts 75°
2026-05-05 13:22 51.87162 0.83967 27586 ft 589 kts 76°
2026-05-05 13:22 51.88174 0.90357 27673 ft 589 kts 76°
2026-05-05 13:22 51.89182 0.96810 28118 ft 605 kts 76°
2026-05-05 13:22 51.90200 1.03396 29011 ft 610 kts 76°
2026-05-05 13:23 51.91222 1.10033 29890 ft 613 kts 76°
2026-05-05 13:23 51.92257 1.16815 30732 ft 616 kts 76°
2026-05-05 13:23 51.93276 1.23544 31519 ft 619 kts 76°
2026-05-05 13:23 51.94293 1.30322 32223 ft 622 kts 76°
2026-05-05 13:24 51.95300 1.37081 32906 ft 624 kts 76°
2026-05-05 13:24 51.96333 1.43939 33577 ft 626 kts 76°
2026-05-05 13:24 51.97351 1.50761 34222 ft 627 kts 76°
2026-05-05 13:24 51.98354 1.57613 34714 ft 618 kts 76°
2026-05-05 13:25 51.99353 1.64351 34895 ft 608 kts 76°
2026-05-05 13:25 52.00320 1.70952 34908 ft 600 kts 77°
2026-05-05 13:25 52.02227 1.83928 34894 ft 583 kts 77°
2026-05-05 13:26 52.04058 1.96573 34894 ft 573 kts 77°
2026-05-05 13:26 52.05869 2.09208 34949 ft 577 kts 77°
2026-05-05 13:27 52.07674 2.21902 34973 ft 579 kts 77°
2026-05-05 13:27 52.09464 2.34621 34957 ft 579 kts 77°
2026-05-05 13:28 52.11249 2.47318 34936 ft 578 kts 76°
2026-05-05 13:28 52.13535 2.59601 34936 ft 578 kts 70°
2026-05-05 13:29 52.15862 2.71809 34926 ft 578 kts 71°
2026-05-05 13:29 52.18227 2.84255 34936 ft 578 kts 72°
2026-05-05 13:30 52.20564 2.96658 34941 ft 577 kts 71°
2026-05-05 13:30 52.22925 3.09111 34941 ft 575 kts 70°
2026-05-05 13:31 52.24779 3.21768 34895 ft 576 kts 85°
2026-05-05 13:31 52.24766 3.28288 34896 ft 572 kts 98°
2026-05-05 13:31 52.24046 3.34569 34907 ft 565 kts 111°
2026-05-05 13:32 52.22653 3.40464 34919 ft 553 kts 124°
2026-05-05 13:32 52.20806 3.45943 34955 ft 550 kts 126°
2026-05-05 13:32 52.17604 3.57370 34967 ft 560 kts 120°
2026-05-05 13:33 52.14712 3.68786 34921 ft 560 kts 119°
2026-05-05 13:33 52.11841 3.80476 34903 ft 559 kts 119°
2026-05-05 13:34 52.09012 3.92009 34909 ft 559 kts 119°
2026-05-05 13:34 52.06168 4.03571 34911 ft 559 kts 118°
2026-05-05 13:35 52.03307 4.15148 34913 ft 560 kts 118°
2026-05-05 13:35 52.00488 4.26501 34914 ft 560 kts 118°
2026-05-05 13:36 51.97577 4.38169 34914 ft 560 kts 118°
2026-05-05 13:36 51.94706 4.49611 34915 ft 560 kts 118°
2026-05-05 13:37 51.91841 4.60972 34915 ft 560 kts 118°
2026-05-05 13:37 51.88983 4.72283 34898 ft 559 kts 119°
2026-05-05 13:38 51.86130 4.83514 34913 ft 559 kts 119°
2026-05-05 13:38 51.83212 4.94979 34915 ft 556 kts 118°
2026-05-05 13:39 51.80304 5.06358 34914 ft 554 kts 118°
2026-05-05 13:39 51.77810 5.16023 34913 ft 554 kts 118°
2026-05-05 13:40 51.75418 5.25253 34914 ft 553 kts 119°
2026-05-05 13:40 51.72474 5.36515 34912 ft 552 kts 119°
2026-05-05 13:41 51.69523 5.47767 34912 ft 552 kts 119°
2026-05-05 13:41 51.66534 5.59112 34912 ft 552 kts 119°
2026-05-05 13:42 51.63583 5.70278 34894 ft 551 kts 120°
2026-05-05 13:42 51.60749 5.80980 34904 ft 551 kts 120°
2026-05-05 13:43 51.57697 5.92416 34911 ft 551 kts 120°
2026-05-05 13:43 51.54695 6.03485 34912 ft 550 kts 121°
2026-05-05 13:44 51.51714 6.14576 34914 ft 552 kts 118°
2026-05-05 13:44 51.48972 6.25788 34907 ft 553 kts 118°
2026-05-05 13:45 51.46126 6.36951 34914 ft 554 kts 117°
2026-05-05 13:45 51.43332 6.48164 34901 ft 554 kts 117°
2026-05-05 13:46 51.40579 6.59260 34891 ft 554 kts 117°
2026-05-05 13:46 51.38016 6.69561 34870 ft 553 kts 118°
2026-05-05 13:47 51.35079 6.81351 34879 ft 553 kts 118°
2026-05-05 13:47 51.32619 6.91149 34884 ft 553 kts 118°
2026-05-05 13:48 51.29732 7.02353 34883 ft 553 kts 117°
2026-05-05 13:48 51.28304 7.07921 34597 ft 557 kts 120°
2026-05-05 13:48 51.26493 7.12976 34033 ft 554 kts 132°
2026-05-05 13:49 51.24107 7.17498 33448 ft 542 kts 143°
2026-05-05 13:49 51.21335 7.21124 32860 ft 520 kts 156°
2026-05-05 13:49 51.18455 7.23640 32274 ft 498 kts 167°
2026-05-05 13:49 51.15358 7.25273 31620 ft 479 kts 176°
2026-05-05 13:50 51.12263 7.26613 30966 ft 479 kts 174°
2026-05-05 13:50 51.09200 7.28611 30262 ft 494 kts 162°
2026-05-05 13:50 51.06387 7.31216 29639 ft 494 kts 159°
2026-05-05 13:50 51.03498 7.33807 29004 ft 484 kts 162°
2026-05-05 13:51 51.00510 7.36132 28369 ft 479 kts 162°
2026-05-05 13:51 50.97609 7.38503 27751 ft 477 kts 161°
2026-05-05 13:51 50.94707 7.40859 27136 ft 473 kts 161°
2026-05-05 13:51 50.91879 7.43178 26538 ft 470 kts 160°
2026-05-05 13:52 50.89165 7.45456 25963 ft 467 kts 159°
2026-05-05 13:52 50.86586 7.47643 25415 ft 464 kts 159°
2026-05-05 13:52 50.83508 7.50115 24765 ft 457 kts 160°
2026-05-05 13:52 50.80690 7.52381 24173 ft 455 kts 159°
2026-05-05 13:53 50.77927 7.54631 23594 ft 450 kts 159°
2026-05-05 13:53 50.75154 7.56876 23014 ft 447 kts 159°
2026-05-05 13:53 50.72420 7.59130 22441 ft 443 kts 158°
2026-05-05 13:53 50.69719 7.61369 21874 ft 439 kts 158°
2026-05-05 13:54 50.67959 7.62824 21502 ft 436 kts 159°
2026-05-05 13:54 50.64539 7.65530 20783 ft 431 kts 159°
2026-05-05 13:54 50.61945 7.67674 20056 ft 405 kts 159°
2026-05-05 13:54 50.59558 7.69608 19299 ft 382 kts 160°
2026-05-05 13:55 50.57257 7.71448 18589 ft 372 kts 159°
2026-05-05 13:55 50.54978 7.73269 17938 ft 375 kts 159°
2026-05-05 13:55 50.52664 7.75123 17300 ft 378 kts 159°
2026-05-05 13:55 50.50349 7.76986 16582 ft 364 kts 158°
2026-05-05 13:56 50.48190 7.78731 15818 ft 347 kts 158°
2026-05-05 13:56 50.46089 7.80426 15035 ft 334 kts 158°
2026-05-05 13:56 50.44047 7.82075 14291 ft 336 kts 157°
2026-05-05 13:56 50.42099 7.84094 13579 ft 342 kts 145°
2026-05-05 13:57 50.40302 7.86427 12887 ft 339 kts 146°
2026-05-05 13:57 50.38443 7.88666 12172 ft 335 kts 146°
2026-05-05 13:57 50.36661 7.90904 11472 ft 329 kts 144°
2026-05-05 13:57 50.34905 7.93101 10764 ft 323 kts 144°
2026-05-05 13:58 50.33199 7.95225 10174 ft 314 kts 143°
2026-05-05 13:58 50.31550 7.97287 9828 ft 298 kts 144°
2026-05-05 13:58 50.29946 7.99282 9536 ft 295 kts 143°
2026-05-05 13:58 50.28334 8.01287 9012 ft 300 kts 143°
2026-05-05 13:59 50.25137 8.05265 8506 ft 290 kts 143°
2026-05-05 13:59 50.23536 8.07229 8028 ft 295 kts 143°
2026-05-05 14:00 50.20887 8.10493 7569 ft 288 kts 143°
2026-05-05 14:00 50.19313 8.12428 7231 ft 288 kts 142°
2026-05-05 14:00 50.17195 8.15031 6711 ft 288 kts 142°
2026-05-05 14:00 50.15653 8.16925 6536 ft 281 kts 142°
2026-05-05 14:01 50.14130 8.18794 6137 ft 284 kts 142°
2026-05-05 14:01 50.12592 8.20679 5777 ft 284 kts 142°
2026-05-05 14:01 50.11057 8.22561 5597 ft 277 kts 142°
2026-05-05 14:01 50.09565 8.24388 5467 ft 268 kts 142°
2026-05-05 14:02 50.08141 8.26129 5273 ft 257 kts 142°
2026-05-05 14:02 50.06840 8.27929 5070 ft 248 kts 129°
2026-05-05 14:02 50.05815 8.30023 4923 ft 240 kts 126°
2026-05-05 14:02 50.04804 8.32071 4670 ft 237 kts 127°
2026-05-05 14:03 50.03793 8.34121 4389 ft 237 kts 127°
2026-05-05 14:03 50.02795 8.36129 4217 ft 238 kts 127°
2026-05-05 14:03 50.01780 8.38170 4120 ft 239 kts 127°
2026-05-05 14:03 50.00756 8.40226 4074 ft 240 kts 127°
2026-05-05 14:04 49.99741 8.42266 4055 ft 242 kts 127°
2026-05-05 14:04 49.98701 8.44348 4044 ft 244 kts 127°
2026-05-05 14:04 49.97644 8.46464 4030 ft 244 kts 128°
2026-05-05 14:04 49.96607 8.48538 4018 ft 244 kts 128°
2026-05-05 14:05 49.95567 8.50616 4010 ft 244 kts 128°
2026-05-05 14:05 49.94671 8.52864 3984 ft 245 kts 110°
2026-05-05 14:05 49.94404 8.55473 3981 ft 246 kts 85°
2026-05-05 14:05 49.94805 8.58009 3993 ft 245 kts 68°
2026-05-05 14:06 49.95433 8.60461 4013 ft 247 kts 68°
2026-05-05 14:06 49.96040 8.62988 4027 ft 248 kts 70°
2026-05-05 14:06 49.96636 8.65433 4035 ft 248 kts 70°
2026-05-05 14:06 49.97246 8.67951 4029 ft 246 kts 71°
2026-05-05 14:07 49.97847 8.70433 4007 ft 246 kts 70°
2026-05-05 14:07 49.98452 8.72926 4001 ft 247 kts 70°
2026-05-05 14:07 49.99062 8.75440 3999 ft 247 kts 71°
2026-05-05 14:07 49.99664 8.77935 4001 ft 246 kts 70°
2026-05-05 14:08 50.00273 8.80450 3993 ft 247 kts 70°
2026-05-05 14:08 50.00879 8.82952 3996 ft 246 kts 71°
2026-05-05 14:08 50.01467 8.85441 4001 ft 244 kts 72°
2026-05-05 14:08 50.02058 8.87955 3988 ft 246 kts 70°
2026-05-05 14:09 50.02455 8.89622 3991 ft 247 kts 70°
2026-05-05 14:09 50.03241 8.92957 3998 ft 246 kts 70°
2026-05-05 14:09 50.03846 8.95505 3998 ft 247 kts 70°
2026-05-05 14:09 50.04439 8.98009 3999 ft 247 kts 70°
2026-05-05 14:10 50.04833 8.99689 4000 ft 247 kts 71°
2026-05-05 14:10 50.05619 9.03050 3997 ft 247 kts 70°
2026-05-05 14:10 50.06207 9.05558 4006 ft 246 kts 72°
2026-05-05 14:10 50.06602 9.07256 4003 ft 246 kts 71°
2026-05-05 14:11 50.07389 9.10626 3995 ft 248 kts 70°
2026-05-05 14:11 50.07976 9.13135 4007 ft 249 kts 71°
2026-05-05 14:11 50.08569 9.15690 4021 ft 250 kts 72°
2026-05-05 14:11 50.09177 9.18295 4034 ft 258 kts 70°
2026-05-05 14:12 50.09788 9.20931 4051 ft 262 kts 71°
2026-05-05 14:12 50.10408 9.23607 4045 ft 259 kts 71°
2026-05-05 14:12 50.11012 9.26203 4007 ft 251 kts 71°
2026-05-05 14:12 50.11598 9.28743 3982 ft 247 kts 72°
2026-05-05 14:13 50.12118 9.30998 3963 ft 245 kts 70°
2026-05-05 14:13 50.12709 9.33559 3963 ft 245 kts 70°
2026-05-05 14:13 50.13273 9.35991 3924 ft 237 kts 69°
2026-05-05 14:13 50.13821 9.38357 3978 ft 221 kts 71°
2026-05-05 14:14 50.14322 9.40548 3953 ft 210 kts 71°
2026-05-05 14:14 50.14815 9.42703 3958 ft 209 kts 69°
2026-05-05 14:14 50.15151 9.44106 3956 ft 205 kts 64°
2026-05-05 14:14 50.16466 9.46043 3863 ft 195 kts 12°
2026-05-05 14:15 50.17771 9.46006 3900 ft 190 kts 336°
2026-05-05 14:15 50.19013 9.45228 4012 ft 194 kts 334°
2026-05-05 14:15 50.20198 9.44496 4038 ft 197 kts 335°
2026-05-05 14:15 50.21476 9.43704 4044 ft 193 kts 335°
2026-05-05 14:16 50.22321 9.43179 4020 ft 194 kts 334°
2026-05-05 14:16 50.23983 9.42155 4011 ft 192 kts 335°
2026-05-05 14:16 50.25201 9.41287 3987 ft 191 kts 329°
2026-05-05 14:16 50.25993 9.40612 3903 ft 194 kts 326°
2026-05-05 14:17 50.27277 9.38722 3695 ft 188 kts 289°
2026-05-05 14:17 50.27424 9.36808 3684 ft 178 kts 255°
2026-05-05 14:17 50.26772 9.35142 3745 ft 185 kts 218°
2026-05-05 14:17 50.25584 9.34450 3884 ft 186 kts 181°
2026-05-05 14:18 50.24281 9.34513 3931 ft 189 kts 193°
2026-05-05 14:18 50.23189 9.33548 3967 ft 184 kts 224°
2026-05-05 14:18 50.22303 9.32087 4029 ft 183 kts 225°
2026-05-05 14:18 50.21512 9.30876 4034 ft 183 kts 223°
2026-05-05 14:19 50.20511 9.29470 4020 ft 182 kts 220°
2026-05-05 14:19 50.19526 9.28209 4001 ft 183 kts 220°
2026-05-05 14:19 50.18525 9.26980 4000 ft 183 kts 219°
2026-05-05 14:19 50.17650 9.25589 3982 ft 182 kts 235°
2026-05-05 14:20 50.17126 9.23775 3973 ft 183 kts 254°
2026-05-05 14:20 50.17001 9.21815 3975 ft 185 kts 270°
2026-05-05 14:20 50.17249 9.19826 3988 ft 186 kts 286°
2026-05-05 14:20 50.17623 9.17881 3993 ft 187 kts 281°
2026-05-05 14:21 50.17927 9.15909 4003 ft 188 kts 279°
2026-05-05 14:21 50.18156 9.13916 4026 ft 184 kts 274°
2026-05-05 14:21 50.18268 9.11946 3993 ft 183 kts 271°
2026-05-05 14:21 50.18253 9.09943 3975 ft 184 kts 263°
2026-05-05 14:22 50.18074 9.07979 3992 ft 183 kts 257°
2026-05-05 14:22 50.17761 9.06045 4001 ft 182 kts 251°
2026-05-05 14:22 50.17287 9.04223 3971 ft 182 kts 234°
2026-05-05 14:22 50.16720 9.03266 3979 ft 181 kts 222°
2026-05-05 14:23 50.15467 9.01492 4001 ft 182 kts 227°
2026-05-05 14:23 50.14653 8.99984 4014 ft 182 kts 232°
2026-05-05 14:23 50.14171 8.98903 4017 ft 182 kts 238°
2026-05-05 14:23 50.13314 8.96616 4020 ft 183 kts 241°
2026-05-05 14:24 50.12935 8.95455 4022 ft 182 kts 244°
2026-05-05 14:24 50.12400 8.93651 4016 ft 182 kts 246°
2026-05-05 14:24 50.11902 8.91840 4005 ft 182 kts 246°
2026-05-05 14:24 50.11273 8.89397 3995 ft 181 kts 248°
2026-05-05 14:25 50.10969 8.88170 3981 ft 183 kts 246°
2026-05-05 14:25 50.10376 8.85712 3997 ft 183 kts 248°
2026-05-05 14:25 50.09934 8.83856 4004 ft 182 kts 248°
2026-05-05 14:25 50.09524 8.81967 3931 ft 180 kts 251°
2026-05-05 14:26 50.09116 8.80097 3819 ft 180 kts 250°
2026-05-05 14:26 50.08778 8.78303 4085 ft 173 kts 250°
2026-05-05 14:26 50.08495 8.76530 4817 ft 168 kts 258°
2026-05-05 14:26 50.08614 8.74957 5817 ft 151 kts 296°
2026-05-05 14:27 50.09005 8.73322 6011 ft 166 kts 274°